Change the Weather History Date:

Tuesday, February 25, 2014

  Actual Average Record
Temperature  
Mean Temperature 18 °F 27 °F  
Max Temperature 22 °F 37 °F 28 °F (2015)
Min Temperature 13 °F 17 °F 3 °F (2015)
Degree Days  
Heating Degree Days 47 38  
Month to date heating degree days 1016 1009  
Since 1 July heating degree days 5086 5140  
Cooling Degree Days 0 0  
Month to date cooling degree days 0 0  
Year to date cooling degree days 0 0  
Moisture  
Dew Point 4 °F    
Average Humidity 52    
Maximum Humidity 61    
Minimum Humidity 43    
Precipitation  
Precipitation T in 0.09 in - ()
Month to date precipitation 2.93 1.96  
Year to date precipitation 5.85 4.71  
Sea Level Pressure  
Sea Level Pressure 29.95 in    
Wind  
Wind Speed 8 mph (West)    
Max Wind Speed 20 mph    
Max Gust Speed 26 mph    
Visibility 9 miles    
Events Snow    
T = Trace of Precipitation, MM = Missing Value Source: NWS Daily Summary

Daily Weather History Graph

Daily Weather History Graph

Search for Another Location

Airport or City:

Trip Planner

Search our weather history database for the weather conditions in past years. The results will help you decide how hot, cold, wet, or windy it might be!

Date:

Astronomy

Feb. 25, 2014 Rise Set
Actual Time 6:35 AM EST 5:37 PM EST
Civil Twilight 6:06 AM EST 6:05 PM EST
Nautical Twilight 5:33 AM EST 6:38 PM EST
Astronomical Twilight 5:01 AM EST 7:11 PM EST
Moon 3:31 AM EST (2/25) 1:36 PM EST (2/25)
Length of Visible Light 11h 59m
Length of Day
11h 02m
Waning Crescent, 18% of the Moon is Illuminated
Feb 25
Waning Crescent
Mar 1
New
Mar 8
First Quarter
Mar 16
Full
Mar 23
Last Quarter

Hourly Weather History & Observations

Time (EST) Temp. Windchill Dew Point Humidity Pressure Visibility Wind Dir Wind Speed Gust Speed Precip Events Conditions
12:54 AM 19.0 °F 10.0 °F 9.0 °F 65% 29.99 in 5.0 mi Variable 6.9 mph - 0.00 in Snow Light Snow
1:04 AM 18.0 °F 9.8 °F 9.0 °F 68% 29.94 in 3.0 mi West 5.8 mph 16.1 mph 0.00 in Snow Light Snow
1:41 AM 18.0 °F 8.7 °F 9.0 °F 68% 29.95 in 7.0 mi West 6.9 mph 20.7 mph 0.00 in   Overcast
1:54 AM 18.0 °F 6.1 °F 9.0 °F 68% 29.98 in 7.0 mi West 10.4 mph 18.4 mph 0.00 in   Overcast
2:54 AM 17.1 °F 6.6 °F 7.0 °F 65% 29.97 in 10.0 mi West 8.1 mph - N/A   Scattered Clouds
3:54 AM 16.0 °F 5.3 °F 1.0 °F 52% 29.98 in 10.0 mi West 8.1 mph - N/A   Clear
4:54 AM 15.1 °F 6.4 °F 1.0 °F 54% 29.98 in 10.0 mi West 5.8 mph - N/A   Overcast
5:54 AM 14.0 °F 6.5 °F 1.0 °F 56% 29.99 in 10.0 mi Variable 4.6 mph - N/A   Mostly Cloudy
6:54 AM 14.0 °F 5.1 °F 1.0 °F 56% 29.98 in 10.0 mi West 5.8 mph - N/A   Overcast
7:54 AM 15.1 °F 5.2 °F 1.0 °F 54% 29.99 in 10.0 mi WSW 6.9 mph - N/A   Overcast
8:54 AM 16.0 °F 6.3 °F 1.0 °F 52% 30.00 in 10.0 mi WSW 6.9 mph - N/A   Mostly Cloudy
9:54 AM 17.1 °F 4.3 °F -0.0 °F 47% 29.98 in 10.0 mi WNW 11.5 mph - N/A   Scattered Clouds
10:54 AM 18.0 °F 6.9 °F 1.9 °F 50% 29.97 in 10.0 mi NW 9.2 mph - N/A   Overcast
11:54 AM 18.0 °F 7.7 °F 6.1 °F 60% 29.95 in 6.0 mi WNW 8.1 mph - N/A   Haze
12:10 PM 19.0 °F 9.0 °F 7.0 °F 59% 29.90 in 4.0 mi WNW 8.1 mph - 0.00 in Snow Light Snow
12:54 PM 19.9 °F 8.6 °F 6.1 °F 55% 29.93 in 10.0 mi WNW 10.4 mph 18.4 mph 0.00 in   Overcast
1:54 PM 21.0 °F 8.6 °F 3.0 °F 46% 29.91 in 10.0 mi WNW 12.7 mph 25.3 mph N/A   Overcast
2:54 PM 21.0 °F 9.9 °F 5.0 °F 50% 29.91 in 10.0 mi NW 10.4 mph 20.7 mph N/A   Overcast
3:54 PM 21.9 °F 9.2 °F 3.0 °F 44% 29.90 in 10.0 mi WNW 13.8 mph 20.7 mph N/A   Overcast
4:54 PM 19.9 °F 7.9 °F -0.0 °F 42% 29.91 in 10.0 mi WNW 11.5 mph 26.5 mph N/A   Overcast
5:54 PM 19.9 °F 7.9 °F 3.0 °F 48% 29.92 in 10.0 mi West 11.5 mph - N/A   Overcast
6:54 PM 19.9 °F 11.1 °F 3.9 °F 50% 29.94 in 10.0 mi Variable 6.9 mph - N/A   Overcast
7:54 PM 18.0 °F 9.8 °F 3.9 °F 54% 29.94 in 10.0 mi SSW 5.8 mph - N/A   Partly Cloudy
8:54 PM 18.0 °F 9.8 °F 6.1 °F 60% 29.95 in 10.0 mi Variable 5.8 mph - N/A   Overcast
9:54 PM 17.1 °F 11.7 °F 5.0 °F 59% 29.96 in 10.0 mi Variable 3.5 mph - N/A   Mostly Cloudy
10:54 PM 17.1 °F 8.7 °F 3.9 °F 56% 29.94 in 10.0 mi SW 5.8 mph - N/A   Mostly Cloudy
11:54 PM 15.1 °F 6.4 °F 1.9 °F 56% 29.92 in 10.0 mi SW 5.8 mph - N/A   Clear